Portada
METAR-TAF:

METAR-TAF

Aeroports :

El Palmar

Santa Ana, El Salvador

latitud: 13-59N, longitud: 089-34W, altitud: 725 m

Observació

L'informe es va fer fa 54 minuts, a les 22:50 UTC
Vent 2 kt del Nord/Nord-Est
Temperatura 25°C
Humitat 89%
Pressió 1018 hPa
Visibilitat 10 km o més
Núvols disperses a una alçada de 3000 ft
Escasses núvols a una alçada de 3700 ft, Cumulonimbus.
Núvols disperses a una alçada de 4000 ft
plugim

METAR: MSSA 262250Z 02002KT 9999 +DZ SCT030 FEW037CB SCT040 25/23 Q1017 A3005 RMK CBSH NW-N

Hora: 17:44 (23:44 UTC)


TAF: manca

Observacions i pronòstics meteorològics de més de 4000 aeroports (METAR i TAF).

Les estacions disponibles són els punts grocs i vermells al mapa.

Posi el ratolí al punt desitjat per veure el nom de l'estació.

Feu clic per veure les observacions i els pronòstics meteorològics.

Per canviar el mapa: feu clic els botons verds amb una creu de color negre per apropar; al botó verd amb un guió per allunyar la imatge; o en les fletxes verdes per a mapes adjacents.


METAR-TAF: